Regional Weather Roundup
Issued by NWS

Home | Current Version | Previous Version | Text Only | Print | Product List | Glossary On
Versions: 1 2 3 4 5 6 7 8 9 10 11 12 13 14 15 16 17 18 19 20 21 22 23 24 25 26 27 28 29 30 31 32 33 34 35 36 37 38 39 40 41 42 43 44 45 46 47 48 49 50
000
ASUS43 KLSX 180707
RWRMO

WEATHER SUMMARY FOR MISSOURI
NATIONAL WEATHER SERVICE SPRINGFIELD MO
200 AM CDT SUN AUG 18 2019

NOTE: "FAIR" INDICATES FEW OR NO CLOUDS BELOW 12,000 FEET WITH NO
       SIGNIFICANT WEATHER AND/OR OBSTRUCTIONS TO VISIBILITY.
       CURRENT SKY AND/OR WEATHER CONDITIONS ARE NOT AVAILABLE FOR
       CHILLICOTHE AND FARMINGTON.

MOZ001>031-035>038-043-044-053-054-180800-
...NORTHERN AND WESTERN MISSOURI...

CITY           SKY/WX    TMP DP  RH WIND       PRES   REMARKS
KANSAS CTY INT CLOUDY    80  72  76 S17G25    29.72F
KANSAS C DTWN  MOCLDY    83  70  64 S15G24    29.72F
LEE`S SUMMIT   MOCLDY    80  70  71 S18G29    29.74F
ST JOSEPH      TSTM      76  72  87 SW3       29.72F
CHILLICOTHE      N/A     78  72  81 S7        29.76F
KIRKSVILLE     CLEAR     73  71  93 S9        29.80F

$$
MOZ066>068-077>081-088>096-101>105-180800-
...SOUTHWEST MISSOURI...

CITY           SKY/WX    TMP DP  RH WIND       PRES   REMARKS
SPRINGFIELD    CLEAR     78  69  73 S12       29.86F
JOPLIN         CLEAR     80  70  71 S14G24    29.82S

$$
MOZ032>034-039>042-045>050-055>058-069>072-180800-
...CENTRAL MISSOURI...

CITY           SKY/WX    TMP DP  RH WIND       PRES   REMARKS
COLUMBIA       CLEAR     76  71  85 SE7       29.84F
ROLLA          CLEAR     77  70  79 S10       29.88F
SEDALIA        CLEAR     75  70  84 S13       29.81F
WHITEMAN AFB   MOCLDY    76  74  92 S13       29.74F
WARRENSBURG    CLEAR     75  70  83 S7        29.77F
OSAGE BEACH    CLEAR     76  72  87 S8        29.85F

$$
MOZ051-052-059>065-180800-
...EAST CENTRAL MISSOURI...

CITY           SKY/WX    TMP DP  RH WIND       PRES   REMARKS
ST LOUIS INTL  PTCLDY    81  70  69 S8        29.87F
SPIRIT OF STL  CLEAR     79  71  76 S3        29.85F
ST CHARLES       N/A    N/A N/A N/A MISG      29.86S

$$
MOZ072>076-082>087-097>100-106>115-180800-
...SOUTH CENTRAL AND SOUTHEAST MISSOURI...

CITY           SKY/WX    TMP DP  RH WIND       PRES   REMARKS
CAPE GIRARDEAU FAIR      76  71  85 S5        29.90F
FARMINGTON     CLEAR     78  72  81 S6        29.92F
POPLAR BLUFF   FAIR      76  71  85 CALM      29.90F
WEST PLAINS    CLEAR     78  70  76 S6        29.93F

$$



USA.gov is the U.S. government's official web portal to all federal, state and local government web resources and services.